This is the latest recevied weather packets stored in our database for station/object EA6MI-10. If no packets are shown the sender has not sent any weather packets the latest 10 day(s).
| Time | Temp. | Humidity | Pressure | Rain* | Wind** | Luminosity | Snow |
|---|---|---|---|---|---|---|---|
| 1777671551 | 21.11° C | 57% | 1017.1 hPa | - | - | - | - |
| 1777670651 | 20.56° C | 56% | 1017 hPa | - | - | - | - |
| 1777669751 | 21.11° C | 56% | 1017.1 hPa | - | - | - | - |
| 1777668851 | 21.11° C | 56% | 1017.2 hPa | - | - | - | - |
| 1777667951 | 21.11° C | 56% | 1016.8 hPa | - | - | - | - |
| 1777667051 | 21.67° C | 58% | 1016.7 hPa | - | - | - | - |
| 1777666150 | 21.67° C | 57% | 1016.4 hPa | - | - | - | - |
| 1777665250 | 21.67° C | 57% | 1016.5 hPa | - | - | - | - |
| 1777664350 | 21.67° C | 57% | 1016.3 hPa | - | - | - | - |
| 1777663450 | 21.67° C | 57% | 1016.2 hPa | - | - | - | - |
| 1777662550 | 21.67° C | 57% | 1015.7 hPa | - | - | - | - |
| 1777661650 | 21.67° C | 56% | 1015.8 hPa | - | - | - | - |
| 1777660750 | 21.67° C | 57% | 1015.7 hPa | - | - | - | - |
| 1777659850 | 21.67° C | 57% | 1015.5 hPa | - | - | - | - |
| 1777658949 | 21.67° C | 57% | 1015.3 hPa | - | - | - | - |
| 1777658049 | 22.22° C | 58% | 1015.4 hPa | - | - | - | - |
| 1777657149 | 21.67° C | 58% | 1015.2 hPa | - | - | - | - |
| 1777656249 | 22.22° C | 59% | 1015.1 hPa | - | - | - | - |
| 1777655349 | 22.22° C | 59% | 1015 hPa | - | - | - | - |
| 1777654449 | 22.22° C | 60% | 1015 hPa | - | - | - | - |
| 1777653549 | 22.22° C | 60% | 1014.9 hPa | - | - | - | - |
| 1777652649 | 22.22° C | 60% | 1014.9 hPa | - | - | - | - |
| 1777651748 | 22.22° C | 60% | 1014.9 hPa | - | - | - | - |
| 1777650848 | 22.22° C | 58% | 1014.8 hPa | - | - | - | - |
| 1777649948 | 21.67° C | 58% | 1013.7 hPa | - | - | - | - |
* Rain since midnight (hover to see other rain measurements)
** Current wind speed in m/s (hover to see current wind gust speed)